Miscellaneous Local Product
Issued by NWS Hastings, NE

Home | Current Version | Previous Version | Text Only | Print | Product List | Glossary On
Versions: 1 2 3 4 5 6 7 8 9 10 11 12 13 14 15 16 17 18 19 20 21 22 23 24 25 26 27 28 29 30 31 32 33 34 35 36 37 38 39 40 41 42 43 44 45 46 47 48 49 50
000
AXUS43 KGID 240602
MISGRI

GID CWA HOURLY WEATHER ROUNDUP
NATIONAL WEATHER SERVICE HASTINGS NE
100 AM CDT SUN JUL 24 2016

NOTE: "FAIR" INDICATES FEW OR NO CLOUDS BELOW 12,000 FEET WITH NO
SIGNIFICANT WEATHER AND/OR OBSTRUCTIONS TO VISIBILITY.

...SOUTH CENTRAL NEBRASKA...

CITY           SKY/WX    TMP DP  RH WIND       PRES   REMARKS
GRAND ISLAND   CLEAR     78  73  84 N8        29.89R
HASTINGS       CLEAR     77  73  87 CALM      29.89R
KEARNEY        CLEAR     75  70  83 N6        29.93R
ORD            CLEAR     75  64  68 NW9       29.93R
YORK           CLEAR     75  72  88 CALM      29.87R
AURORA         CLEAR     75  75  99 CALM      29.88R
LEXINGTON      CLEAR     74  65  74 N8        29.95R
HOLDREGE       PTCLDY    73  71  91 CALM      29.92R
HEBRON         CLEAR     76  69  78 CALM      29.85S

...NEBRASKA PANHANDLE...

CITY           SKY/WX    TMP DP  RH WIND       PRES   REMARKS
CHADRON        CLEAR     65  52  62 NE3       30.04R
ALLIANCE       CLEAR     65  56  72 NE5       30.07R
SCOTTSBLUFF    PTCLDY    68  57  68 E7        30.07R
SIDNEY         CLOUDY    74  53  48 SW9       30.14R

...WESTERN AND NORTH CENTRAL NEBRASKA...

CITY           SKY/WX    TMP DP  RH WIND       PRES   REMARKS
VALENTINE      PTCLDY    71  55  56 NE5       30.00R
AINSWORTH      CLEAR     64  60  85 NE9       29.99S
ONEILL         CLEAR     73  65  74 N6        29.96R
BROKEN BOW     PTCLDY    73  62  68 N13       29.97R
IMPERIAL       LGT RAIN  79  60  52 NW13G25   30.04R
NORTH PLATTE   PTCLDY    74  59  59 NE9       29.99R
MCCOOK         PTCLDY    73  70  90 CALM      29.94R

...EASTERN NEBRASKA...

CITY           SKY/WX    TMP DP  RH WIND       PRES   REMARKS
NORFOLK        CLEAR     81  72  74 N16G23    29.86R
SO SIOUX CITY  CLEAR     79  75  87 SE6       29.80R
TEKAMAH        CLEAR     78  75  90 SE5       29.81R
COLUMBUS       CLEAR     75  68  78 W6        29.86R
ALBION         CLEAR     78  69  73 N7        29.90R
OMAHA EPPLEY   CLOUDY    85  74  69 S6        29.82S HX  92
OFFUTT AFB     CLOUDY    82  74  77 VRB2      29.82S
MILLARD        CLOUDY    82  75  79 CALM      29.83R
LINCOLN        CLEAR     76  72  87 S6        29.84S
NEBRASKA CITY  PTCLDY    80  73  79 S8        29.84S
BEATRICE       CLOUDY    82  70  65 S6        29.84R
FALLS CITY     CLOUDY    79  73  82 S8        29.84R

...NORTHERN KANSAS...

CITY           SKY/WX    TMP DP  RH WIND       PRES   REMARKS
GOODLAND       MOCLDY    77  61  57 NW14      30.06R
HILL CITY      MOCLDY    76  70  82 CALM      29.89R
NORTON         CLEAR     73  64  73 N3        29.91S
SMITH CENTER   CLEAR     79  61  53 S8        29.87R
BELOIT         CLEAR     81  66  61 CALM      29.84R
HAYS           CLOUDY    84  57  39 SW8       29.89R
RUSSELL        CLOUDY    86  60  41 S14       29.86R
CONCORDIA      CLOUDY    84  68  58 S16       29.83R
SALINA         CLEAR     87  68  52 S14       29.84R HX  90
TOPEKA         CLEAR     86  69  56 S8        29.85S HX  90



USA.gov is the U.S. government's official web portal to all federal, state and local government web resources and services.